TimeAKDT,TemperatureF,Dew PointF,Humidity,Sea Level PressureIn,VisibilityMPH,Wind Direction,Wind SpeedMPH,Gust SpeedMPH,PrecipitationIn,Events,Conditions,WindDirDegrees,DateUTC
12:15 AM,51.8,48.2,88,29.62,7.0,South,20.7,28.8,0.04,Rain,Light Rain,170,2011-10-18 08:15:00
12:31 AM,51.8,48.2,88,29.64,8.0,South,18.4,27.6,0.06,Rain,Light Rain,180,2011-10-18 08:31:00
12:43 AM,51.8,48.2,88,29.64,9.0,South,16.1,26.5,0.06,Rain,Light Rain,180,2011-10-18 08:43:00
12:51 AM,51.8,48.2,88,29.65,8.0,South,17.3,24.2,0.07,Rain,Light Rain,180,2011-10-18 08:51:00
12:53 AM,51.1,48.9,92,29.65,6.0,South,18.4,25.3,0.09,Rain,Light Rain,180,2011-10-18 08:53:00
1:50 AM,51.8,48.2,88,29.66,8.0,South,18.4,28.8,0.04,Rain,Light Rain,180,2011-10-18 09:50:00
1:53 AM,51.1,48.9,92,29.66,7.0,South,24.2,31.1,0.04,Rain,Light Rain,170,2011-10-18 09:53:00
2:25 AM,51.8,46.4,82,29.66,10.0,South,19.6,31.1,0.01,Rain,Light Rain,170,2011-10-18 10:25:00
2:53 AM,51.1,46.9,86,29.67,10.0,South,20.7,35.7,0.05,Rain,Light Rain,170,2011-10-18 10:53:00
3:53 AM,51.1,46.9,86,29.65,4.0,South,17.3,27.6,0.02,Rain,Light Rain,180,2011-10-18 11:53:00
4:46 AM,51.8,46.4,82,29.66,10.0,South,21.9,31.1,0.03,,Mostly Cloudy,180,2011-10-18 12:46:00
4:53 AM,51.1,46.0,83,29.67,10.0,South,25.3,35.7,0.03,,Mostly Cloudy,180,2011-10-18 12:53:00
5:53 AM,50.0,46.0,86,29.68,9.0,South,23.0,29.9,0.00,Rain,Light Rain,180,2011-10-18 13:53:00
6:53 AM,50.0,43.0,77,29.70,10.0,South,19.6,24.2,0.00,,Overcast,170,2011-10-18 14:53:00
7:53 AM,50.0,43.0,77,29.73,10.0,South,15.0,26.5,0.00,,Overcast,170,2011-10-18 15:53:00
8:53 AM,50.0,43.0,77,29.75,10.0,South,13.8,23.0,N/A,,Overcast,170,2011-10-18 16:53:00
9:30 AM,48.2,44.6,87,29.76,1.8,South,26.5,35.7,0.05,Rain,Heavy Rain,170,2011-10-18 17:30:00
9:38 AM,50.0,44.6,82,29.75,3.0,South,24.2,35.7,0.07,Rain,Light Rain,170,2011-10-18 17:38:00
9:53 AM,50.0,45.0,83,29.76,8.0,South,16.1,28.8,0.07,Rain,Light Rain,180,2011-10-18 17:53:00
10:43 AM,48.2,44.6,87,29.78,1.8,South,21.9,32.2,0.11,Rain,Heavy Rain,180,2011-10-18 18:43:00
10:53 AM,48.9,46.0,90,29.79,2.0,South,11.5,26.5,0.15,Rain,Heavy Rain,190,2011-10-18 18:53:00
10:56 AM,48.2,46.4,93,29.79,3.0,SSW,19.6,31.1,0.00,Rain,Heavy Rain,200,2011-10-18 18:56:00
11:03 AM,48.2,44.6,87,29.79,4.0,SSW,15.0,31.1,0.01,Rain,Light Rain,200,2011-10-18 19:03:00
11:18 AM,48.2,46.4,93,29.80,3.0,SW,13.8,21.9,0.09,Rain,Heavy Rain,230,2011-10-18 19:18:00
11:38 AM,48.2,46.4,93,29.80,0.8,SSW,11.5,-,0.32,Rain,Heavy Rain,210,2011-10-18 19:38:00
11:51 AM,48.2,46.4,93,29.81,1.0,SSW,9.2,-,0.43,Rain,Heavy Rain,210,2011-10-18 19:51:00
11:52 AM,48.0,46.0,93,29.81,1.2,SW,9.2,-,0.43,Rain,Heavy Rain,220,2011-10-18 19:52:00
11:59 AM,46.4,46.4,100,29.81,3.0,SW,10.4,-,0.00,Rain,Light Rain,230,2011-10-18 19:59:00
12:06 PM,46.4,46.4,100,29.81,1.8,SW,10.4,-,0.01,Rain,Light Rain,220,2011-10-18 20:06:00
12:24 PM,46.4,46.4,100,29.82,3.0,SSW,5.8,-,0.03,Rain,Light Rain,200,2011-10-18 20:24:00
12:35 PM,48.2,46.4,93,29.82,1.8,SSW,8.1,-,0.04,Rain,Light Rain,200,2011-10-18 20:35:00
12:40 PM,46.4,46.4,100,29.82,2.0,South,10.4,-,0.05,Rain,Light Rain,190,2011-10-18 20:40:00
12:53 PM,46.9,46.0,97,29.83,2.0,SSW,10.4,-,0.08,Rain,Light Rain,200,2011-10-18 20:53:00
1:00 PM,48.2,46.4,93,29.83,2.5,South,10.4,-,0.00,Rain,Light Rain,190,2011-10-18 21:00:00
1:21 PM,46.4,46.4,100,29.83,1.2,SSW,10.4,-,0.03,Rain,Rain,210,2011-10-18 21:21:00
1:29 PM,46.4,46.4,100,29.83,3.0,SSW,8.1,-,0.03,Rain,Light Rain,210,2011-10-18 21:29:00
1:38 PM,46.4,46.4,100,29.83,4.0,SSW,4.6,-,0.03,Rain,Light Rain,200,2011-10-18 21:38:00
1:53 PM,46.9,46.0,97,29.83,6.0,South,3.5,-,0.03,Rain,Light Rain,170,2011-10-18 21:53:00
2:53 PM,46.9,46.0,97,29.84,10.0,East,4.6,-,0.00,,Overcast,90,2011-10-18 22:53:00
3:06 PM,46.4,44.6,93,29.83,10.0,East,5.8,-,N/A,,Overcast,80,2011-10-18 23:06:00
3:45 PM,46.4,44.6,93,29.83,10.0,ESE,4.6,-,0.00,Rain,Light Rain,110,2011-10-18 23:45:00
3:53 PM,46.9,45.0,93,29.83,10.0,ESE,5.8,-,0.00,Rain,Light Rain,110,2011-10-18 23:53:00
4:53 PM,46.9,45.0,93,29.83,10.0,ESE,5.8,-,0.00,,Overcast,120,2011-10-19 00:53:00
5:23 PM,46.4,44.6,93,29.83,10.0,East,4.6,-,0.00,,Overcast,80,2011-10-19 01:23:00
5:53 PM,46.0,44.1,93,29.83,10.0,East,5.8,-,0.00,,Overcast,100,2011-10-19 01:53:00
6:03 PM,46.4,44.6,93,29.83,9.0,Variable,3.5,-,0.01,Rain,Light Rain,0,2011-10-19 02:03:00
6:27 PM,46.4,44.6,93,29.83,7.0,Calm,Calm,-,0.03,Rain,Light Rain,0,2011-10-19 02:27:00
6:44 PM,46.4,42.8,87,29.83,10.0,East,3.5,-,0.03,,Overcast,90,2011-10-19 02:44:00
6:53 PM,46.0,44.1,93,29.83,9.0,East,5.8,-,0.03,Rain,Light Rain,100,2011-10-19 02:53:00
7:53 PM,45.0,43.0,93,29.83,6.0,ESE,6.9,-,0.02,Rain,Rain,110,2011-10-19 03:53:00
8:06 PM,44.6,42.8,93,29.83,10.0,East,4.6,-,0.00,,Overcast,100,2011-10-19 04:06:00
8:14 PM,44.6,42.8,93,29.83,10.0,East,5.8,-,0.00,,Overcast,100,2011-10-19 04:14:00
8:27 PM,44.6,42.8,93,29.83,10.0,East,6.9,-,0.00,,Mostly Cloudy,100,2011-10-19 04:27:00
8:53 PM,45.0,43.0,93,29.83,3.0,ENE,5.8,-,0.05,Rain,Rain,60,2011-10-19 04:53:00
9:03 PM,44.6,42.8,93,29.83,4.0,East,3.5,-,0.04,Rain,Heavy Rain,90,2011-10-19 05:03:00
9:53 PM,45.0,43.0,93,29.84,10.0,East,5.8,-,0.07,,Overcast,100,2011-10-19 05:53:00
10:50 PM,44.6,42.8,93,29.83,10.0,East,3.5,-,N/A,,Overcast,80,2011-10-19 06:50:00
10:53 PM,44.1,43.0,96,29.83,10.0,Calm,Calm,-,N/A,,Overcast,0,2011-10-19 06:53:00
11:43 PM,44.6,42.8,93,29.84,10.0,Calm,Calm,-,0.02,,Overcast,0,2011-10-19 07:43:00
11:53 PM,44.1,43.0,96,29.84,10.0,East,3.5,-,0.02,,Overcast,100,2011-10-19 07:53:00